Regional Weather Roundup
Issued by NWS

Home | Current Version | Previous Version | Text Only | Print | Product List | Glossary On
Versions: 1 2 3 4 5 6 7 8 9 10 11 12 13 14 15 16 17 18 19 20 21 22 23 24 25 26 27 28 29 30 31 32 33 34 35 36 37 38 39 40 41 42 43 44 45 46 47 48 49 50
000
ASCA42 TJSJ 170310
RWRPR
PUERTO RICO/U.S. VIRGIN ISLANDS HOURLY WEATHER ROUNDUP
NATIONAL WEATHER SERVICE SAN JUAN PR
1100 PM AST MON JAN 16 2017

PRZ001>002-007>008-010-170400-
PUERTO RICO

CITY           SKY/WX    TMP DP  RH WIND       PRES   REMARKS
SAN JUAN LMM   PTCLDY    77  72  83 NE14G23   30.10S
PONCE          PTCLDY    66  63  88 NE6       30.09S
CEIBA          LGT RAIN  72  70  94 N10       30.10S
$$

VIZ001>002-170400-
U.S. VIRGIN ISLANDS

CITY           SKY/WX    TMP DP  RH WIND       PRES   REMARKS
CHARLOTTE AMA  CLEAR     77  64  65 NE16G23   30.07F
CHRISTIANSTED  CLEAR     75  63  64 NE12      30.08S
$$

HOURLY WEATHER ROUNDUP FOR THE NEWS MEDIA

CITY           SKY/WX    TMP DP  RH WIND       PRES   REMARKS
ORLANDO        CLEAR     63  57  81 E5        30.25F
NEW YORK       CLOUDY    41  27  57 SW9       30.34F
NEWARK         CLOUDY    40  24  53 SW8       30.32F WCI  34
CHICAGO        DRZL/FOG  36  36 100 E8        29.92F VSB 1   WCI  30
HARTFORD       PTCLDY    35  25  66 SW8       30.27F WCI  29
BOSTON         MOCLDY    36  19  50 SW14      30.24F WCI  27
DALLAS         CLOUDY    55  45  68 N8        30.04S
PHILADELPHIA   CLOUDY    39  26  59 S3        30.35F
LOS ANGELES    CLEAR     57  52  83 W9        30.04S
WASHINGTON DC  CLOUDY    42  32  67 S3        30.33F


USA.gov is the U.S. government's official web portal to all federal, state and local government web resources and services.